EWG7768 EDDH-EGPH

Flight info

Callsign EWG7768
Flight time N/A
Altitude 34000
Route ELSOB3G/33 ELSOB L619 OSTOR DCT OMIMA DCT VALBO DCT ROPAL DCT DIGBI DCT AGPED AGPED1E
Aircraft A321/M-SDE3FGHIRWY/LB1

Departure

Time 2026-04-25 19:12
Airport Hamburg Helmut Schmidt Airport (EDDH)

Arrival

Time N/A
Airport Edinburgh Airport (EGPH)
Time Latitude Longitude Altitude Speed Heading
2026-04-25 18:47 53.62747 9.99172 47 ft 0 kts 63°
2026-04-25 19:02 53.62746 9.99170 20 ft 2 kts 63°
2026-04-25 19:03 53.62732 9.99118 45 ft 4 kts 72°
2026-04-25 19:03 53.62726 9.99045 42 ft 4 kts 104°
2026-04-25 19:03 53.62736 9.99014 44 ft 2 kts 153°
2026-04-25 19:04 53.62740 9.99010 44 ft 0 kts 153°
2026-04-25 19:07 53.62708 9.99038 42 ft 6 kts 153°
2026-04-25 19:07 53.62652 9.99085 47 ft 11 kts 153°
2026-04-25 19:08 53.62586 9.99305 47 ft 14 kts 79°
2026-04-25 19:08 53.62606 9.99475 47 ft 16 kts 79°
2026-04-25 19:09 53.62636 9.99740 47 ft 0 kts 78°
2026-04-25 19:10 53.62637 9.99748 44 ft 3 kts 77°
2026-04-25 19:10 53.62659 9.99824 44 ft 10 kts 54°
2026-04-25 19:10 53.62727 9.99861 46 ft 11 kts 351°
2026-04-25 19:11 53.62801 9.99802 45 ft 13 kts 333°
2026-04-25 19:11 53.62884 9.99731 45 ft 14 kts 333°
2026-04-25 19:11 53.62916 9.99704 45 ft 0 kts 333°
2026-04-25 19:12 53.63015 9.99617 45 ft 51 kts 333°
2026-04-25 19:12 53.63570 9.99138 48 ft 124 kts 333°
2026-04-25 19:12 53.64510 9.98332 132 ft 171 kts 330°
2026-04-25 19:12 53.65534 9.97509 946 ft 153 kts 330°
2026-04-25 19:13 53.66463 9.96698 1698 ft 150 kts 329°
2026-04-25 19:13 53.67397 9.95854 2296 ft 154 kts 328°
2026-04-25 19:13 53.68379 9.94967 2766 ft 169 kts 331°
2026-04-25 19:13 53.69477 9.94026 3053 ft 190 kts 332°
2026-04-25 19:14 53.70650 9.92760 3265 ft 212 kts 315°
2026-04-25 19:14 53.70967 9.92091 3344 ft 219 kts 304°
2026-04-25 19:14 53.71170 9.87694 4112 ft 248 kts 260°
2026-04-25 19:14 53.70633 9.84911 4655 ft 251 kts 259°
2026-04-25 19:15 53.70068 9.82109 5182 ft 253 kts 259°
2026-04-25 19:15 53.69496 9.79299 5731 ft 254 kts 259°
2026-04-25 19:15 53.68925 9.76481 6275 ft 254 kts 259°
2026-04-25 19:15 53.68361 9.73661 6778 ft 254 kts 260°
2026-04-25 19:16 53.67799 9.70824 7241 ft 256 kts 260°
2026-04-25 19:16 53.67235 9.67967 7704 ft 257 kts 260°
2026-04-25 19:16 53.66671 9.65110 8172 ft 258 kts 261°
2026-04-25 19:16 53.66106 9.62236 8644 ft 258 kts 262°
2026-04-25 19:17 53.65806 9.59319 9083 ft 248 kts 276°
2026-04-25 19:17 53.65995 9.56475 9518 ft 242 kts 290°
2026-04-25 19:17 53.66624 9.53887 9951 ft 238 kts 303°
2026-04-25 19:17 53.67463 9.51464 10279 ft 242 kts 303°
2026-04-25 19:18 53.68323 9.48952 10418 ft 251 kts 302°
2026-04-25 19:18 53.69203 9.46359 10612 ft 257 kts 302°
2026-04-25 19:18 53.70090 9.43733 10913 ft 258 kts 302°
2026-04-25 19:18 53.70979 9.41097 11207 ft 259 kts 302°
2026-04-25 19:19 53.71872 9.38445 11495 ft 260 kts 303°
2026-04-25 19:19 53.72766 9.35783 11829 ft 260 kts 303°
2026-04-25 19:19 53.73653 9.33132 12215 ft 258 kts 303°
2026-04-25 19:19 53.73951 9.32242 12328 ft 258 kts 303°
2026-04-25 19:20 53.75447 9.27773 12675 ft 265 kts 303°
2026-04-25 19:20 53.76357 9.25053 12938 ft 267 kts 303°
2026-04-25 19:20 53.77271 9.22323 13204 ft 268 kts 303°
2026-04-25 19:20 53.78190 9.19579 13461 ft 269 kts 303°
2026-04-25 19:21 53.79110 9.16817 13711 ft 270 kts 303°
2026-04-25 19:21 53.80959 9.11261 14145 ft 272 kts 303°
2026-04-25 19:21 53.81888 9.08469 14366 ft 273 kts 303°
2026-04-25 19:22 53.82837 9.05684 14563 ft 273 kts 307°
2026-04-25 19:22 53.84007 9.03167 14764 ft 272 kts 313°
2026-04-25 19:22 53.86474 8.98288 15159 ft 273 kts 313°
2026-04-25 19:23 53.87708 8.95835 15361 ft 274 kts 313°
2026-04-25 19:23 53.90168 8.90924 15780 ft 274 kts 313°
2026-04-25 19:23 53.91003 8.89265 15950 ft 273 kts 313°
2026-04-25 19:24 53.92631 8.86022 16282 ft 272 kts 313°
2026-04-25 19:24 53.93855 8.83576 16537 ft 272 kts 313°
2026-04-25 19:24 53.96297 8.78678 17066 ft 272 kts 313°
2026-04-25 19:25 53.98342 8.74569 17498 ft 272 kts 313°
2026-04-25 19:25 53.99565 8.72118 17760 ft 272 kts 313°
2026-04-25 19:25 54.00785 8.69668 18007 ft 272 kts 313°
2026-04-25 19:26 54.02016 8.67192 18144 ft 276 kts 313°
2026-04-25 19:26 54.03245 8.64716 18279 ft 279 kts 313°
2026-04-25 19:26 54.04502 8.62184 18416 ft 281 kts 313°
2026-04-25 19:26 54.05765 8.59635 18571 ft 282 kts 312°
2026-04-25 19:27 54.07029 8.57076 18724 ft 283 kts 313°
2026-04-25 19:27 54.07886 8.55337 18833 ft 284 kts 312°
2026-04-25 19:27 54.09570 8.51921 19032 ft 285 kts 312°
2026-04-25 19:27 54.10844 8.49333 19175 ft 286 kts 312°
2026-04-25 19:28 54.12127 8.46732 19320 ft 286 kts 312°
2026-04-25 19:28 54.13409 8.44127 19459 ft 287 kts 312°
2026-04-25 19:28 54.14693 8.41513 19608 ft 288 kts 312°